Weather History for KSDL - October, 2011

Change the Weather History Date:

Saturday, October 15, 2011

  Actual Average (KPHX) Record (KPHX)
Temperature  
Mean Temperature 81 °F 77 °F  
Max Temperature 98 °F 89 °F 103 °F (1991)
Min Temperature 64 °F 65 °F 41 °F (1899)
Degree Days  
Heating Degree Days 0 0  
Month to date heating degree days 0  
Since 1 July heating degree days 0  
Cooling Degree Days 16 12  
Month to date cooling degree days 223  
Year to date cooling degree days 4392  
Growing Degree Days 31 (Base 50)    
Moisture  
Dew Point 35 °F    
Average Humidity 22    
Maximum Humidity 40    
Minimum Humidity 9    
Precipitation  
Precipitation 0.00 in 0.02 in 0.72 in (1907)
Month to date precipitation 0.29  
Year to date precipitation 6.21  
Snow  
Snow 0.00 in - - ()
Month to date snowfall  
Year to date snowfall  
Since 1 July snowfall  
Snow Depth -    
Sea Level Pressure  
Sea Level Pressure 29.81 in    
Wind  
Wind Speed 2 mph (WSW)    
Max Wind Speed 6 mph    
Max Gust Speed -    
Visibility 10 miles    
Events      
T = Trace of Precipitation, MM = Missing Value Source: NWS Daily Summary

Daily Weather History Graph

Daily Weather History Graph

Search for Another Location

Airport or City:

Trip Planner

Search our weather history database for the weather conditions in past years. The results will help you decide how hot, cold, wet, or windy it might be!

Date:

Astronomy

Oct. 15, 2011 Rise Set
Actual Time 6:32 AM MST 5:54 PM MST
Civil Twilight 6:07 AM MST 6:19 PM MST
Nautical Twilight 5:38 AM MST 6:48 PM MST
Astronomical Twilight 5:09 AM MST 7:16 PM MST
Moon 8:05 PM MST (10/15) 9:48 AM MST (10/15)
Length of Visible Light 12h 11m
Length of Day
11h 21m
Waning Gibbous, 88% of the Moon is Illuminated
Oct 15
Waning Gibbous
Oct 19
Last Quarter
Oct 26
New
Nov 2
First Quarter
Nov 10
Full

Hourly Weather History & Observations

Time (MST) Temp. Dew Point Humidity Pressure Visibility Wind Dir Wind Speed Gust Speed Precip Events Conditions
12:53 AM 71.1 °F 37.0 °F 29% 29.80 in 10.0 mi WSW 5.8 mph - N/A   Clear
2:53 AM 72.0 °F 37.0 °F 28% 29.80 in 10.0 mi Calm Calm - N/A   Clear
3:53 AM 68.0 °F 39.0 °F 35% 29.80 in 10.0 mi Calm Calm - N/A   Clear
4:53 AM 64.9 °F 39.0 °F 39% 29.81 in 10.0 mi Calm Calm - N/A   Clear
6:53 AM 66.0 °F 41.0 °F 40% 29.84 in 10.0 mi Calm Calm - N/A   Clear
7:53 AM 73.0 °F 37.9 °F 28% 29.86 in 10.0 mi NE 3.5 mph - N/A   Clear
8:53 AM 75.9 °F 43.0 °F 31% 29.87 in 10.0 mi Calm Calm - N/A   Clear
10:53 AM 86.0 °F 39.0 °F 19% 29.86 in 10.0 mi Calm Calm - N/A   Clear
11:53 AM 91.0 °F 34.0 °F 13% 29.85 in 10.0 mi SW 3.5 mph - N/A   Clear
12:53 PM 95.0 °F 30.9 °F 10% 29.82 in 10.0 mi SSW 4.6 mph - N/A   Clear
1:53 PM 96.1 °F 30.9 °F 10% 29.79 in 10.0 mi SW 3.5 mph - N/A   Clear
3:53 PM 98.1 °F 28.9 °F 9% 29.77 in 10.0 mi Calm Calm - N/A   Clear
4:53 PM 97.0 °F 28.9 °F 9% 29.76 in 10.0 mi Calm Calm - N/A   Clear
5:53 PM 93.9 °F 32.0 °F 11% 29.76 in 10.0 mi Calm Calm - N/A   Clear
7:53 PM 86.0 °F 36.0 °F 17% 29.79 in 10.0 mi Calm Calm - N/A   Clear
8:53 PM 82.9 °F 34.0 °F 17% 29.80 in 10.0 mi NNE 3.5 mph - N/A   Clear
9:53 PM 78.1 °F 35.1 °F 21% 29.81 in 10.0 mi WNW 3.5 mph - N/A   Clear
10:53 PM 78.1 °F 33.1 °F 19% 29.82 in 10.0 mi Calm Calm - N/A   Clear
11:53 PM 73.9 °F 35.1 °F 24% 29.82 in 10.0 mi Calm Calm - N/A   Clear